Find Starlink 2432

NORAD ID: 47840 Int'l Des: 2021-018 Owner: SPXS Country: US Constellation: starlink operational
LEOCIRCULARSTARLINK_TYPE

实时位置

正在加载3D地球...

关于 Starlink 2432

正在加载描述...

即将过境

Passes for default location (London). Set your location on the main map for personalized predictions.

高度历史

Loading altitude history...

两行轨道根数

1 47840U 21018BF 26121.16670139 .00842299 00000-0 28334-1 0 9995
2 47840 53.1440 355.0666 0001570 88.5646 138.5418 15.27633403 5833
Epoch: May 1, 2026 • Age: 6 hours

当前状态

高度 499.6 km
速度 7.61 km/s
星下点 -49.09°S, 141.92°W
发射日期 Mar 11, 2021
运行时间 5.1 years
类型 internet

技术详情

分类 Payload
质量 260.00 kg
干质量 248.00 kg
总质量 260.00 kg
长度 0.20 m
直径 2.80 m
跨度 9.00 m
形状 Box + pan
制造商 SPXS
平台类型 Starlink
阶段状态 In Orbit
所有者/国家 SPXS/US

Most Searched